Regional Weather Roundup
Issued by NWS

Home | Current Version | Previous Version | Text Only | Print | Product List | Glossary Off
Versions: 1 2 3 4 5 6 7 8 9 10 11 12 13 14 15 16 17 18 19 20 21 22 23 24 25 26 27

000
ASUS45 KTFX 060510
RWRMT
MONTANA REGIONAL WEATHER ROUNDUP
NATIONAL WEATHER SERVICE GREAT FALLS MT
1100 PM MDT THU MAY 05 2016

NOTE: "FAIR" INDICATES FEW OR NO CLOUDS BELOW 12000 FEET WITH NO
SIGNIFICANT WEATHER AND/OR OBSTRUCTIONS TO VISIBILITY.

MTZ001>007-043-060600-
WEST OF THE DIVIDE

CITY           SKY/WX    TMP DP  RH WIND       PRES   REMARKS
KALISPELL      CLOUDY    57  45  64 N15       29.97R
MISSOULA       CLOUDY    58  48  69 VRB3      29.94R
BUTTE          MOCLDY    63  36  36 NW8       29.97R
MULLAN PASS    CLOUDY    50  43  77 N6        30.02S
ANACONDA         N/A     61  39  44 N17G24    29.97R
DEER LODGE       N/A     61  39  44 NE16G25   30.01R
EUREKA           N/A     61  46  59 NW10      29.99R
HAMILTON         N/A     63  43  48 NW12      29.91R
LIBBY            N/A     63  48  59 CALM      29.95R
PLAINS           N/A     59  54  83 CALM      29.94R
$$

MTZ008-052>055-060600-
SOUTHWEST MONTANA

CITY           SKY/WX    TMP DP  RH WIND       PRES   REMARKS
BOZEMAN        CLOUDY    62  39  42 S10       29.90R
DILLON         CLOUDY    57  32  38 E7        29.90S
ENNIS          PTCLDY    55  34  44 NW9       30.00R
THREE FORKS      N/A     66  13  13 NE5       29.92R
TWIN BRIDGES     N/A     62  31  31 N12       29.93R
$$

MTZ009-010-012-014-046-048-049-054-060600-
EAST SLOPES AND CENTRAL MONTANA

CITY           SKY/WX    TMP DP  RH WIND       PRES   REMARKS
CUT BANK       CLOUDY    51  37  58 N22       30.11R
GREAT FALLS    MOCLDY    56  41  57 N9        30.07R
MALMSTROM AFB  CLOUDY    57  42  56 N10       30.08R
HELENA         PTCLDY    62  41  46 N16       30.00R
CHOTEAU          N/A     54  39  58 N20G25    30.12R
CONRAD           N/A     54  48  80 NW13      30.13R
$$

MTZ011-013-016-021-045-047-050-051-060600-
NORTH CENTRAL MONTANA

CITY           SKY/WX    TMP DP  RH WIND       PRES   REMARKS
HAVRE          CLOUDY    62  41  46 N6        30.02R
LEWISTOWN      CLOUDY    61  44  53 CALM      29.97R
N BAR RANCH      N/A     59  41  51 NW8       29.99R
$$

MTZ017>020-022>027-061-062-060600-
NORTHEAST MONTANA

CITY           SKY/WX    TMP DP  RH WIND       PRES   REMARKS
GLASGOW        CLOUDY    69  41  36 N20       29.84R
JORDAN           N/A     59  48  67 W5        29.85R
SIDNEY         PTCLDY    64  43  45 CALM      29.79R
WOLF POINT     CLOUDY    76  40  27 N20       29.81R
POPLAR           N/A     68  43  40 N6        29.82R
SCOBEY           N/A     62  36  38 N7        29.86R
$$

MTZ028>42-056>058-060600-
SOUTHCENTRAL AND SOUTHEAST MONTANA

CITY           SKY/WX    TMP DP  RH WIND       PRES   REMARKS
BAKER          CLOUDY    63  44  50 CALM      29.85R
BILLINGS       CLOUDY    66  40  38 N5        29.88R
LIVINGSTON     CLOUDY    57  38  48 S10       29.92R
MILES CITY     CLOUDY    66  48  52 NW3       29.83R
EKALAKA          N/A     65  41  41 SE8       29.88S
FORSYTH          N/A     64  45  48 CALM      29.84R
LAUREL           N/A     66  37  34 N2        29.88R
ROUNDUP          N/A     66  41  40 CALM      29.83S
$$

REGIONAL REPORTS...DAKOTAS

CITY           SKY/WX    TMP DP  RH WIND       PRES   REMARKS
WILLISTON      PTCLDY    72  39  30 NE8       29.78R
MINOT          CLEAR     73  38  27 SW9       29.72F
DICKINSON      CLEAR     58  38  47 S7        29.80S
BEACH            N/A     61  39  44 W5        29.86R
CROSBY           N/A     63  37  39 NW10      29.79R
TIOGA            N/A     68  37  32 N12       29.82S
WATFORD CITY     N/A     59  48  67 SW6       29.78F
BISMARCK       CLOUDY    63  46  54 CALM      29.78F
GRAND FORKS    PTCLDY    66  41  40 S12       29.70F
FARGO          CLOUDY    74  40  29 SW15      29.77R
BUFFALO SD       N/A     68  47  46 SW3       29.80S
RAPID CITY     CLOUDY    54  44  69 CALM      29.88S
$$

REGIONAL REPORTS...WYOMING/IDAHO/WASHINGTON

CITY           SKY/WX    TMP DP  RH WIND       PRES   REMARKS
GILLETTE       CLOUDY    52  44  74 S5        29.93S
SHERIDAN       CLOUDY    56  42  59 SW5       29.91S
BUFFALO WY     CLOUDY    64  33  31 W9        29.98S
CODY           CLOUDY    63  34  34 SW15      29.94F
YELLOWSTONE LA   N/A     37  28  70 W3        30.14F
IDAHO FALLS    CLOUDY    61  38  42 E3        29.88R
SALMON         CLOUDY    66  36  32 CALM      29.83R
BOISE          CLOUDY    65  44  46 NW10      29.79S
SPOKANE        MOCLDY    59  50  72 N7        29.94R
$$

REGIONAL REPORTS...ALBERTA

CITY           SKY/WX    TMP DP  RH WIND       PRES   REMARKS
EDMONTON       PTCLDY    50  21  32 W6        30.08R
CALGARY        PTCLDY    46  41  81 SW6       30.17R
LETHBRIDGE     LGT RAIN  52  46  82 W9        30.16R
MEDICINE HAT   CLOUDY    52  45  76 NW10      30.11R
WATERTON GATE    N/A     45  43  93 NW6         N/A
CARDSTON         N/A     46  41  81 NW3         N/A
MILK RIVER       N/A     48  43  81 N16G22      N/A
ONEFOUR          N/A     50  45  81 N18G24      N/A
$$

REGIONAL REPORTS...SASKATCHEWAN

CITY           SKY/WX    TMP DP  RH WIND       PRES   REMARKS
SWIFT CURRENT  CLOUDY    54  41  62 NW15G21   30.00R HAZE
REGINA         MOCLDY    64  43  45 N18G26    29.83R
SASKATOON      MOCLDY    54  37  54 N16       29.99R
CYPRESS HILLS    N/A     46  37  71 N12G23      N/A
VAL MARIE        N/A     61  39  44 N22G28      N/A
ROCKGLEN         N/A     63  39  42 N17G23      N/A
ASSINIBOIA       N/A     41  36  81 S5          N/A
$$




USA.gov is the U.S. government's official web portal to all federal, state and local government web resources and services.